This demonstration page uses our WeatherBlox Daily Observations layout. Learn more.

Left ArrowRight Arrow

Hourly Observations for December 21, 2018

Temp ( °F °C ) Dew Point ( °F °C ) Humidity (%) Winds ( mph kmh ) Pressure ( in mb ) Visibility ( mi km ) Precip ( " mm )
12:57 am 00:57 Clear 28 -2.2 23 -5 81 81 WNW 5 7 30.01 1016 10 16 0.00 0.00
1:57 am 01:57 Clear 27 -2.8 22 -5.6 81 81 WNW 3 6 30.00 1016 10 16 0.00 0.00
2:57 am 02:57 Clear 25 -3.9 21 -6.1 85 85 Calm 29.98 1015 10 16 0.00 0.00
3:57 am 03:57 Clear 25 -3.9 22 -5.6 88 88 SW 3 6 29.96 1015 10 16 0.00 0.00
4:57 am 04:57 Clear 24 -4.4 20 -6.7 84 84 Calm 29.94 1014 10 16 0.00 0.00
5:57 am 05:57 Clear 22 -5.6 20 -6.7 92 92 Calm 29.93 1014 10 16 0.00 0.00
6:57 am 06:57 Clear 22 -5.6 20 -6.7 92 92 WSW 3 6 29.92 1013 10 16 0.00 0.00
7:57 am 07:57 Sunny 22 -5.6 20 -6.7 92 92 Calm 29.92 1013 10 16 0.00 0.00
8:57 am 08:57 Sunny 27 -2.8 23 -5 85 85 SW 6 9 29.91 1013 10 16 0.00 0.00
9:57 am 09:57 Sunny 34 1.1 26 -3.3 73 73 S 7 11 29.88 1012 10 16 0.00 0.00
10:57 am 10:57 Sunny 40 4.4 27 -2.8 60 60 SSW 13 20 29.85 1011 10 16 0.00 0.00
11:57 am 11:57 Sunny 42 5.6 26 -3.3 53 53 S 13 20 29.78 1009 10 16 0.00 0.00
12:57 pm 12:57 Sunny 44 6.7 26 -3.3 49 49 S 15 24 29.75 1007 10 16 0.00 0.00
1:57 pm 13:57 Sunny 47 8.3 27 -2.8 46 46 S 17 28 29.71 1006 10 16 0.00 0.00
2:57 pm 14:57 Sunny 48 8.9 26 -3.3 42 42 S 21 33 29.68 1005 10 16 0.00 0.00
3:57 pm 15:57 Sunny 46 7.8 28 -2.2 50 50 S 16 26 29.69 1006 10 16 0.00 0.00
4:57 pm 16:57 Sunny 44 6.7 28 -2.2 53 53 SSW 10 17 29.71 1006 10 16 0.00 0.00
5:57 pm 17:57 Clear 39 3.9 27 -2.8 62 62 SSW 9 15 29.72 1006 10 16 0.00 0.00
6:57 pm 18:57 Clear 39 3.9 26 -3.3 60 60 SSW 10 17 29.71 1006 10 16 0.00 0.00
7:57 pm 19:57 Clear 40 4.4 25 -3.9 55 55 WNW 8 13 29.77 1008 10 16 0.00 0.00
8:57 pm 20:57 Clear 40 4.4 27 -2.8 60 60 NNW 7 11 29.78 1008 10 16 0.00 0.00
9:57 pm 21:57 Clear 37 2.8 27 -2.8 67 67 NW 7 11 29.78 1009 10 16 0.00 0.00
10:57 pm 22:57 Clear 37 2.8 28 -2.2 70 70 NNW 10 17 29.80 1009 10 16 0.00 0.00
11:57 pm 23:57 Clear 35 1.7 28 -2.2 76 76 NNW 9 15 29.83 1010 10 16 0.00 0.00

Powered by AerisWeather